Lid_Strength_Index
13 14 14 14 15 15 15 15 16 16 14 15 16 16 16 15 15 16 16 16 16 16 15 16 15 15 14 14 15 14 14 14 16 14 15 16 17 16 16 14 14 13 13
13 13 13 14 14 15 16 15 15 14 14 14 15 16 16 17 17 16 16 16 15 16 16 16 16 14 15 15 15 15 15 14 15 16 14 16 18 16 15 16 15 14 14
13 13 14 15 15 15 14 15 14 14 14 14 14 15 16 15 16 16 16 16 15 15 15 16 16 16 15 15 15 15 15 14 15 15 15 14 17 17 17 17 16 15 15
13 14 14 14 14 14 14 14 15 14 14 14 14 14 14 14 14 16 16 15 15 15 15 15 14 15 14 14 15 15 14 15 15 15 15 15 17 17 16 16 18 16 16
13 14 14 14 14 14 14 14 14 14 14 14 14 14 14 14 14 15 16 15 15 16 15 15 14 14 12 12 13 14 14 14 14 14 15 15 16 18 17 16 15 15 16
13 13 13 13 12 12 12 12 13 13 13 14 14 14 15 14 12 12 13 15 15 16 16 16 15 15 14 12 11 11 11 13 14 13 14 14 14 15 15 15 16 16 17
12 12 12 12 12 12 12 13 14 14 14 14 14 14 15 14 12 12 12 14 15 15 15 16 16 15 15 15 14 12 12 11 10 11 13 13 12 12 13 14 15 15 15
13 14 13 13 14 14 14 15 15 15 16 16 16 16 17 16 13 13 13 15 16 16 16 16 16 16 16 16 16 15 15 13 12 12 11 11 10 10 11 11 13 14 13
13 13 14 15 17 16 17 17 17 18 18 19 18 18 19 19 16 15 15 17 17 17 16 16 16 16 15 14 16 16 15 14 11 9 9 9 8 7 7 10 13 14 16
14 14 15 16 20 19 18 19 19 20 19 19 20 20 20 21 17 16 16 17 18 18 17 16 15 16 14 13 15 16 17 16 14 13 11 11 9 9 8 8 10 13 14
16 16 17 17 19 20 20 20 21 21 21 22 21 21 21 20 20 16 15 16 17 18 18 17 16 14 14 13 13 14 15 13 12 12 11 11 11 11 10 9 8 10 12
17 18 20 21 21 20 22 21 21 22 23 23 23 22 21 20 18 17 15 14 14 16 17 17 17 15 14 13 13 13 13 12 13 12 11 11 11 11 10 10 9 8 9
23 24 24 22 21 20 22 22 22 22 23 23 23 23 22 20 19 16 14 14 13 15 16 15 13 13 12 13 13 13 14 15 15 14 13 10 10 9 9 9 8 8 9
28 25 23 22 21 20 20 20 22 22 23 23 23 23 22 20 18 17 16 16 14 14 13 14 14 12 12 13 14 14 15 15 15 14 12 10 9 9 9 8 9 8 9
24 22 22 21 22 21 20 20 20 19 19 20 19 19 19 19 17 14 13 13 13 12 11 12 14 17 18 18 18 16 15 16 16 14 12 9 9 9 9 9 9 9 10
23 21 21 21 21 20 21 21 16 15 15 15 14 16 16 14 13 12 12 11 10 9 12 13 13 13 14 15 16 16 15 15 14 12 11 10 10 9 9 9 9 9 11
26 22 21 20 21 21 21 22 23 20 15 16 15 15 14 14 14 13 12 12 11 12 15 15 15 15 14 14 15 16 16 15 14 13 11 11 10 9 9 9 10 10 11
27 23 22 21 21 22 22 22 22 23 23 22 18 17 16 15 14 13 14 15 20 18 18 18 17 17 16 14 15 16 15 15 15 14 12 9 9 8 9 9 10 11 11
25 24 24 22 21 22 22 23 23 23 23 22 22 19 19 16 15 16 16 21 21 21 19 19 17 16 14 13 14 14 15 14 14 13 11 9 9 8 9 9 10 10 11
27 23 21 24 23 23 24 24 23 23 23 23 23 22 21 19 22 22 22 22 22 21 20 20 18 16 15 13 12 13 14 13 12 11 10 9 9 9 9 10 10 11 12
27 26 23 23 25 25 25 25 24 24 24 24 23 22 15 21 23 22 22 22 22 22 21 20 19 17 16 15 13 12 11 11 11 11 12 12 11 11 10 10 11 12 13
28 28 27 25 25 26 27 26 25 25 24 24 24 23 18 23 23 22 22 21 21 21 20 20 19 18 17 16 16 15 14 13 12 12 12 12 12 12 12 12 13 14 15
28 28 25 26 28 27 28 30 28 26 26 26 25 25 24 24 23 22 21 21 20 20 20 20 20 18 17 16 15 15 15 15 13 13 13 13 13 13 13 14 14 15 15
29 26 26 28 30 30 31 31 29 28 28 28 28 26 25 25 24 23 22 21 20 20 20 20 20 19 18 16 16 16 14 14 14 13 13 14 15 15 15 16 16 17 17
27 26 27 30 34 32 32 32 30 31 31 29 28 27 26 25 25 24 23 23 21 21 21 20 19 19 18 16 16 16 15 15 15 14 14 15 16 16 17 17 17 18 19
24 26 28 30 32 33 34 34 32 31 31 29 28 27 26 25 25 24 24 23 22 21 20 20 20 20 19 16 15 13 13 13 15 15 15 16 17 17 17 18 18 19 19